Weather History for KLKV - October, 2012

Change the Weather History Date:

Wednesday, October 3, 2012

  Actual Average Record
Temperature  
Mean Temperature 52 °F -  
Max Temperature 66 °F 70 °F 88 °F (1933)
Min Temperature 37 °F 35 °F 23 °F (1934)
Degree Days  
Heating Degree Days 14    
Growing Degree Days 2 (Base 50)    
Moisture  
Dew Point 13 °F    
Average Humidity 21    
Maximum Humidity 33    
Minimum Humidity 14    
Precipitation  
Precipitation 0.00 in - - ()
Sea Level Pressure  
Sea Level Pressure 30.17 in    
Wind  
Wind Speed 16 mph (NNW)    
Max Wind Speed 25 mph    
Max Gust Speed 33 mph    
Visibility 10 miles    
Events      
Averages and records for this station are not official NWS values.
T = Trace of Precipitation, MM = Missing Value Source: NWS Daily Summary

Daily Weather History Graph

Daily Weather History Graph

Search for Another Location

Airport or City:

Trip Planner

Search our weather history database for the weather conditions in past years. The results will help you decide how hot, cold, wet, or windy it might be!

Date:

Astronomy

Oct. 03, 2012 Rise Set
Actual Time 7:01 AM PDT 6:38 PM PDT
Civil Twilight 6:33 AM PDT 7:06 PM PDT
Nautical Twilight 6:01 AM PDT 7:38 PM PDT
Astronomical Twilight 5:28 AM PDT 8:11 PM PDT
Moon 8:29 PM PDT (10/3) 10:33 AM PDT (10/3)
Length of Visible Light 12h 33m
Length of Day
11h 37m
Waning Gibbous, 88% of the Moon is Illuminated
Oct 3
Waning Gibbous
Oct 8
Last Quarter
Oct 15
New
Oct 21
First Quarter
Oct 29
Full

Hourly Weather History & Observations

Time (PDT) Temp. Windchill Dew Point Humidity Pressure Visibility Wind Dir Wind Speed Gust Speed Precip Events Conditions
12:15 AM 48.2 °F - 12.2 °F 24% 30.13 in 10.0 mi NNW 11.5 mph - N/A   Clear
12:35 AM 50.0 °F - 12.2 °F 22% 30.14 in 10.0 mi North 15.0 mph 19.6 mph N/A   Clear
12:55 AM 55.4 °F - 10.4 °F 17% 30.15 in 10.0 mi North 16.1 mph - N/A   Clear
1:15 AM 53.6 °F - 10.4 °F 18% 30.16 in 10.0 mi North 15.0 mph - N/A   Clear
1:35 AM 53.6 °F - 10.4 °F 18% 30.17 in 10.0 mi North 12.7 mph - N/A   Clear
1:55 AM 48.2 °F - 8.6 °F 20% 30.17 in 10.0 mi NNW 12.7 mph - N/A   Clear
2:15 AM 46.4 °F 40.1 °F 12.2 °F 25% 30.17 in 10.0 mi NNW 15.0 mph - N/A   Clear
2:35 AM 46.4 °F 40.1 °F 12.2 °F 25% 30.17 in 10.0 mi NNW 15.0 mph - N/A   Clear
2:55 AM 44.6 °F 39.2 °F 10.4 °F 25% 30.17 in 10.0 mi NNW 10.4 mph - N/A   Clear
3:15 AM 44.6 °F 42.2 °F 12.2 °F 27% 30.17 in 10.0 mi NW 4.6 mph - N/A   Clear
3:55 AM 41.0 °F 33.1 °F 10.4 °F 29% 30.17 in 10.0 mi NW 15.0 mph - N/A   Clear
4:15 AM 39.2 °F 31.6 °F 10.4 °F 31% 30.17 in 10.0 mi NW 12.7 mph - N/A   Clear
4:35 AM 39.2 °F 30.8 °F 12.2 °F 33% 30.18 in 10.0 mi NW 15.0 mph - N/A   Clear
4:55 AM 39.2 °F 30.8 °F 10.4 °F 31% 30.18 in 10.0 mi NNW 15.0 mph - N/A   Clear
5:15 AM 37.4 °F 28.9 °F 10.4 °F 33% 30.18 in 10.0 mi NNW 13.8 mph - N/A   Clear
5:35 AM 44.6 °F 37.2 °F 12.2 °F 27% 30.18 in 10.0 mi North 17.3 mph - N/A   Clear
5:55 AM 46.4 °F 38.5 °F 15.8 °F 29% 30.18 in 10.0 mi North 21.9 mph 29.9 mph N/A   Clear
6:15 AM 44.6 °F 35.5 °F 10.4 °F 25% 30.19 in 10.0 mi North 25.3 mph 29.9 mph N/A   Clear
6:35 AM 42.8 °F 34.0 °F 12.2 °F 29% 30.19 in 10.0 mi North 20.7 mph 26.5 mph N/A   Clear
6:55 AM 42.8 °F 33.5 °F 10.4 °F 27% 30.19 in 10.0 mi North 23.0 mph 32.2 mph N/A   Clear
7:15 AM 42.8 °F 33.8 °F 12.2 °F 29% 30.20 in 10.0 mi NNW 21.9 mph 31.1 mph N/A   Clear
7:35 AM 42.8 °F 33.8 °F 10.4 °F 27% 30.20 in 10.0 mi North 21.9 mph 33.4 mph N/A   Clear
7:55 AM 42.8 °F 34.0 °F 10.4 °F 27% 30.21 in 10.0 mi NNW 20.7 mph 28.8 mph N/A   Clear
8:15 AM 44.6 °F 35.5 °F 12.2 °F 27% 30.21 in 10.0 mi NNW 25.3 mph 32.2 mph N/A   Clear
8:35 AM 44.6 °F 35.9 °F 12.2 °F 27% 30.21 in 10.0 mi NNW 23.0 mph 31.1 mph N/A   Clear
8:55 AM 46.4 °F 38.7 °F 12.2 °F 25% 30.21 in 10.0 mi NNW 20.7 mph 26.5 mph N/A   Clear
9:15 AM 48.2 °F - 12.2 °F 24% 30.22 in 10.0 mi North 20.7 mph 26.5 mph N/A   Clear
9:35 AM 48.2 °F - 12.2 °F 24% 30.22 in 10.0 mi NNW 17.3 mph 25.3 mph N/A   Clear
9:55 AM 50.0 °F - 12.2 °F 22% 30.23 in 10.0 mi North 20.7 mph 28.8 mph N/A   Clear
10:15 AM 51.8 °F - 14.0 °F 22% 30.23 in 10.0 mi NNW 17.3 mph 27.6 mph N/A   Clear
10:35 AM 53.6 °F - 14.0 °F 21% 30.22 in 10.0 mi NNW 17.3 mph 25.3 mph N/A   Clear
10:55 AM 55.4 °F - 15.8 °F 21% 30.22 in 10.0 mi NNW 18.4 mph 24.2 mph N/A   Clear
11:15 AM 55.4 °F - 15.8 °F 21% 30.21 in 10.0 mi NNW 19.6 mph 25.3 mph N/A   Clear
11:35 AM 57.2 °F - 15.8 °F 20% 30.21 in 10.0 mi North 17.3 mph 27.6 mph N/A   Clear
11:55 AM 59.0 °F - 15.8 °F 19% 30.21 in 10.0 mi NNW 17.3 mph 25.3 mph N/A   Clear
12:15 PM 60.8 °F - 17.6 °F 19% 30.21 in 10.0 mi NNW 17.3 mph 21.9 mph N/A   Clear
12:35 PM 62.6 °F - 17.6 °F 18% 30.20 in 10.0 mi North 17.3 mph 21.9 mph N/A   Clear
12:55 PM 62.6 °F - 17.6 °F 18% 30.19 in 10.0 mi North 15.0 mph - N/A   Clear
1:15 PM 64.4 °F - 17.6 °F 16% 30.19 in 10.0 mi North 18.4 mph 21.9 mph N/A   Clear
1:35 PM 64.4 °F - 17.6 °F 16% 30.18 in 10.0 mi NNW 16.1 mph 21.9 mph N/A   Clear
1:55 PM 64.4 °F - 17.6 °F 16% 30.17 in 10.0 mi North 16.1 mph 21.9 mph N/A   Clear
2:15 PM 66.2 °F - 17.6 °F 15% 30.17 in 10.0 mi NNW 17.3 mph 23.0 mph N/A   Clear
2:35 PM 66.2 °F - 17.6 °F 15% 30.16 in 10.0 mi North 17.3 mph 21.9 mph N/A   Clear
2:55 PM 66.2 °F - 17.6 °F 15% 30.16 in 10.0 mi North 17.3 mph - N/A   Clear
3:15 PM 66.2 °F - 17.6 °F 15% 30.15 in 10.0 mi NNW 13.8 mph - N/A   Clear
3:55 PM 66.2 °F - 15.8 °F 14% 30.15 in 10.0 mi North 15.0 mph - N/A   Clear
4:15 PM 66.2 °F - 15.8 °F 14% 30.15 in 10.0 mi North 15.0 mph - N/A   Clear
4:35 PM 66.2 °F - 15.8 °F 14% 30.14 in 10.0 mi NNW 15.0 mph 19.6 mph N/A   Clear
4:55 PM 64.4 °F - 15.8 °F 15% 30.14 in 10.0 mi NNW 20.7 mph - N/A   Clear
5:15 PM 64.4 °F - 14.0 °F 14% 30.14 in 10.0 mi North 15.0 mph 23.0 mph N/A   Clear
5:35 PM 62.6 °F - 15.8 °F 16% 30.14 in 10.0 mi NNW 17.3 mph - N/A   Clear
5:55 PM 60.8 °F - 14.0 °F 16% 30.14 in 10.0 mi North 17.3 mph 21.9 mph N/A   Clear
6:15 PM 59.0 °F - 14.0 °F 17% 30.14 in 10.0 mi NNW 16.1 mph 20.7 mph N/A   Clear
6:35 PM 55.4 °F - 12.2 °F 18% 30.14 in 10.0 mi North 16.1 mph 19.6 mph N/A   Clear
6:55 PM 55.4 °F - 12.2 °F 18% 30.14 in 10.0 mi North 13.8 mph - N/A   Clear
7:15 PM 55.4 °F - 10.4 °F 17% 30.14 in 10.0 mi North 17.3 mph 21.9 mph N/A   Clear
7:35 PM 53.6 °F - 10.4 °F 18% 30.14 in 10.0 mi North 16.1 mph - N/A   Clear
7:55 PM 53.6 °F - 10.4 °F 18% 30.15 in 10.0 mi North 17.3 mph - N/A   Clear
8:15 PM 53.6 °F - 12.2 °F 19% 30.14 in 10.0 mi North 16.1 mph - N/A   Clear
8:35 PM 51.8 °F - 12.2 °F 21% 30.15 in 10.0 mi North 12.7 mph - N/A   Clear
8:55 PM 53.6 °F - 12.2 °F 19% 30.15 in 10.0 mi NNW 15.0 mph 18.4 mph N/A   Clear
9:15 PM 51.8 °F - 12.2 °F 21% 30.15 in 10.0 mi North 13.8 mph - N/A   Clear
9:35 PM 51.8 °F - 12.2 °F 21% 30.15 in 10.0 mi North 13.8 mph - N/A   Clear
9:55 PM 51.8 °F - 12.2 °F 21% 30.16 in 10.0 mi North 16.1 mph 20.7 mph N/A   Clear
10:15 PM 51.8 °F - 12.2 °F 21% 30.16 in 10.0 mi North 17.3 mph - N/A   Clear
10:35 PM 51.8 °F - 12.2 °F 21% 30.17 in 10.0 mi NNW 16.1 mph 20.7 mph N/A   Clear
10:55 PM 50.0 °F - 10.4 °F 20% 30.17 in 10.0 mi NNW 16.1 mph 20.7 mph N/A   Clear
11:15 PM 48.2 °F - 10.4 °F 22% 30.17 in 10.0 mi NNW 12.7 mph - N/A   Clear
11:35 PM 44.6 °F 38.8 °F 12.2 °F 27% 30.18 in 10.0 mi NNW 11.5 mph - N/A   Clear
11:55 PM 44.6 °F 38.8 °F 12.2 °F 27% 30.17 in 10.0 mi NNW 11.5 mph - N/A   Clear